QPF
0.00 0.00 0.00 0.00 0.00 0.00 0.00 0.00 0.00 0.00 0.00 0.00 0.00 0.00 0.00 0.00 0.00 0.00 0.00 0.00 0.00 0.00 0.00 0.00 0.00 0.00 0.00 0.00 0.00 0.00 0.00 0.00 0.00 0.00 0.00 0.00 0.00 0.00 0.00 0.02 0.00 0.00 0.01 0.02
0.00 0.00 0.00 0.00 0.00 0.00 0.00 0.00 0.00 0.00 0.00 0.00 0.00 0.00 0.00 0.00 0.00 0.00 0.00 0.00 0.00 0.00 0.00 0.00 0.00 0.00 0.00 0.00 0.00 0.00 0.00 0.00 0.00 0.00 0.00 0.00 0.00 0.00 0.00 0.00 0.01 0.00 0.01 0.04
0.00 0.00 0.00 0.00 0.00 0.00 0.00 0.00 0.00 0.00 0.00 0.00 0.00 0.00 0.00 0.00 0.00 0.00 0.00 0.00 0.00 0.00 0.00 0.00 0.00 0.00 0.00 0.00 0.00 0.00 0.00 0.00 0.00 0.00 0.00 0.00 0.00 0.00 0.00 0.00 0.00 0.00 0.00 0.02
0.00 0.00 0.00 0.00 0.00 0.00 0.00 0.00 0.00 0.00 0.00 0.00 0.00 0.00 0.00 0.00 0.00 0.00 0.00 0.00 0.00 0.00 0.00 0.00 0.00 0.00 0.00 0.00 0.00 0.00 0.00 0.00 0.00 0.00 0.00 0.00 0.00 0.00 0.00 0.00 0.00 0.00 0.00 0.00
0.00 0.00 0.00 0.00 0.00 0.00 0.00 0.00 0.00 0.00 0.00 0.00 0.00 0.00 0.00 0.00 0.00 0.00 0.00 0.00 0.00 0.00 0.00 0.00 0.00 0.00 0.00 0.00 0.00 0.00 0.00 0.00 0.00 0.00 0.00 0.00 0.00 0.00 0.00 0.00 0.00 0.00 0.00 0.00
0.00 0.00 0.00 0.00 0.00 0.00 0.00 0.00 0.00 0.00 0.00 0.00 0.00 0.00 0.00 0.00 0.00 0.00 0.00 0.00 0.00 0.00 0.00 0.00 0.00 0.00 0.00 0.00 0.00 0.00 0.00 0.00 0.00 0.00 0.00 0.00 0.00 0.00 0.00 0.00 0.00 0.00 0.00 0.00
0.00 0.00 0.00 0.00 0.00 0.00 0.00 0.00 0.00 0.00 0.00 0.00 0.00 0.00 0.00 0.00 0.00 0.00 0.00 0.00 0.00 0.00 0.00 0.00 0.00 0.00 0.00 0.00 0.00 0.00 0.00 0.00 0.00 0.00 0.00 0.00 0.00 0.00 0.00 0.00 0.00 0.00 0.00 0.00
0.00 0.00 0.00 0.00 0.00 0.00 0.00 0.00 0.00 0.00 0.00 0.00 0.00 0.00 0.00 0.00 0.00 0.00 0.00 0.00 0.00 0.00 0.00 0.00 0.00 0.00 0.00 0.00 0.00 0.00 0.00 0.00 0.00 0.00 0.00 0.00 0.00 0.00 0.00 0.00 0.00 0.00 0.00 0.00
0.00 0.00 0.00 0.00 0.00 0.00 0.00 0.00 0.00 0.00 0.00 0.00 0.00 0.00 0.00 0.00 0.00 0.00 0.00 0.00 0.00 0.00 0.00 0.00 0.00 0.00 0.00 0.00 0.00 0.00 0.00 0.00 0.00 0.00 0.00 0.00 0.00 0.00 0.00 0.00 0.00 0.00 0.00 0.00
0.00 0.00 0.00 0.00 0.00 0.00 0.00 0.00 0.00 0.00 0.00 0.00 0.00 0.00 0.00 0.00 0.00 0.00 0.00 0.00 0.00 0.00 0.00 0.00 0.00 0.00 0.00 0.00 0.00 0.00 0.00 0.00 0.00 0.00 0.00 0.00 0.00 0.00 0.00 0.00 0.00 0.00 0.00 0.00
0.00 0.00 0.00 0.00 0.00 0.00 0.00 0.00 0.00 0.00 0.00 0.00 0.00 0.00 0.00 0.00 0.00 0.00 0.00 0.00 0.00 0.00 0.00 0.00 0.00 0.00 0.00 0.00 0.00 0.00 0.00 0.00 0.00 0.00 0.00 0.00 0.00 0.00 0.00 0.00 0.00 0.00 0.00 0.00
0.00 0.00 0.00 0.00 0.00 0.00 0.00 0.00 0.00 0.00 0.00 0.00 0.00 0.00 0.00 0.00 0.00 0.00 0.00 0.00 0.00 0.00 0.00 0.00 0.00 0.00 0.00 0.00 0.00 0.00 0.00 0.00 0.00 0.00 0.00 0.00 0.00 0.00 0.00 0.00 0.00 0.00 0.00 0.00
0.00 0.00 0.00 0.00 0.00 0.00 0.00 0.00 0.00 0.00 0.00 0.00 0.00 0.00 0.00 0.00 0.00 0.00 0.00 0.00 0.00 0.00 0.00 0.00 0.00 0.00 0.00 0.00 0.00 0.00 0.00 0.00 0.00 0.00 0.00 0.00 0.00 0.00 0.00 0.00 0.00 0.00 0.01 0.00
0.00 0.00 0.00 0.00 0.00 0.00 0.00 0.00 0.00 0.00 0.00 0.00 0.00 0.00 0.00 0.00 0.00 0.00 0.00 0.00 0.00 0.00 0.00 0.00 0.00 0.00 0.00 0.00 0.00 0.00 0.00 0.00 0.00 0.00 0.00 0.00 0.00 0.00 0.00 0.00 0.00 0.01 0.02 0.01
0.00 0.00 0.00 0.00 0.00 0.00 0.00 0.00 0.00 0.00 0.00 0.00 0.00 0.00 0.00 0.00 0.00 0.00 0.00 0.00 0.00 0.00 0.00 0.00 0.00 0.00 0.00 0.00 0.00 0.00 0.00 0.00 0.00 0.00 0.00 0.00 0.00 0.00 0.00 0.00 0.00 0.02 0.02 0.02
0.00 0.00 0.00 0.00 0.00 0.00 0.00 0.00 0.00 0.00 0.00 0.00 0.00 0.00 0.00 0.00 0.00 0.00 0.00 0.00 0.00 0.00 0.00 0.00 0.00 0.00 0.00 0.00 0.00 0.00 0.00 0.00 0.00 0.00 0.00 0.00 0.00 0.00 0.00 0.00 0.00 0.00 0.01 0.00
0.00 0.00 0.00 0.00 0.00 0.00 0.00 0.00 0.00 0.00 0.00 0.00 0.00 0.00 0.00 0.00 0.00 0.00 0.00 0.00 0.00 0.00 0.00 0.00 0.00 0.00 0.00 0.00 0.00 0.00 0.00 0.00 0.00 0.00 0.00 0.00 0.00 0.00 0.00 0.00 0.00 0.00 0.00 0.00
0.00 0.00 0.00 0.00 0.00 0.00 0.00 0.00 0.00 0.00 0.00 0.00 0.00 0.00 0.00 0.00 0.00 0.00 0.00 0.00 0.00 0.00 0.00 0.00 0.00 0.00 0.00 0.00 0.00 0.00 0.00 0.00 0.00 0.00 0.00 0.00 0.00 0.00 0.00 0.00 0.00 0.00 0.00 0.00
0.00 0.00 0.00 0.00 0.00 0.00 0.00 0.00 0.00 0.00 0.00 0.00 0.00 0.00 0.00 0.00 0.00 0.00 0.00 0.00 0.00 0.00 0.00 0.00 0.00 0.00 0.00 0.00 0.00 0.00 0.00 0.00 0.00 0.00 0.00 0.00 0.00 0.00 0.00 0.00 0.00 0.00 0.00 0.00
0.00 0.00 0.00 0.00 0.00 0.00 0.00 0.00 0.00 0.00 0.00 0.00 0.00 0.00 0.00 0.00 0.00 0.00 0.00 0.00 0.00 0.00 0.00 0.00 0.00 0.00 0.00 0.00 0.00 0.00 0.00 0.00 0.00 0.00 0.00 0.00 0.00 0.00 0.00 0.00 0.00 0.00 0.00 0.00
0.00 0.00 0.00 0.00 0.00 0.00 0.00 0.00 0.00 0.00 0.00 0.00 0.00 0.00 0.00 0.00 0.00 0.00 0.00 0.00 0.00 0.00 0.00 0.00 0.00 0.00 0.00 0.00 0.00 0.00 0.00 0.00 0.00 0.00 0.00 0.00 0.00 0.00 0.00 0.00 0.00 0.00 0.00 0.00
0.00 0.00 0.00 0.00 0.00 0.00 0.00 0.00 0.00 0.00 0.00 0.00 0.00 0.00 0.00 0.00 0.00 0.00 0.00 0.00 0.00 0.00 0.00 0.00 0.00 0.00 0.00 0.00 0.00 0.00 0.00 0.00 0.00 0.00 0.00 0.00 0.00 0.00 0.00 0.00 0.00 0.00 0.00 0.00
0.00 0.00 0.00 0.00 0.00 0.00 0.00 0.00 0.00 0.00 0.00 0.00 0.00 0.00 0.00 0.00 0.00 0.00 0.00 0.00 0.00 0.00 0.00 0.00 0.00 0.00 0.00 0.00 0.00 0.00 0.00 0.00 0.00 0.00 0.00 0.00 0.00 0.00 0.00 0.00 0.00 0.00 0.00 0.00
0.00 0.00 0.00 0.00 0.00 0.00 0.00 0.00 0.00 0.00 0.00 0.00 0.00 0.00 0.00 0.00 0.00 0.00 0.00 0.00 0.00 0.00 0.00 0.00 0.00 0.00 0.00 0.00 0.00 0.00 0.00 0.00 0.00 0.00 0.00 0.00 0.00 0.00 0.00 0.00 0.00 0.00 0.00 0.00
0.00 0.00 0.00 0.00 0.00 0.00 0.00 0.00 0.00 0.00 0.00 0.00 0.00 0.00 0.00 0.00 0.00 0.00 0.00 0.00 0.00 0.00 0.00 0.00 0.00 0.00 0.00 0.00 0.00 0.00 0.00 0.00 0.00 0.00 0.00 0.00 0.00 0.00 0.00 0.00 0.00 0.00 0.00 0.00
0.00 0.00 0.00 0.00 0.00 0.00 0.00 0.00 0.00 0.00 0.00 0.00 0.00 0.00 0.00 0.00 0.00 0.00 0.00 0.00 0.00 0.00 0.00 0.00 0.00 0.00 0.00 0.00 0.00 0.00 0.00 0.00 0.00 0.00 0.00 0.00 0.00 0.00 0.00 0.00 0.00 0.00 0.00 0.00
MSLP
1027.18 1028.60 1030.37 1030.70 1030.66 1031.20 1031.76 1032.10 1032.21 1032.18 1032.35 1032.72 1033.21 1033.60 1033.68 1033.71 1033.85 1033.71 1033.31 1033.02 1032.76 1032.34 1032.05 1031.94 1031.86 1031.76 1031.52 1031.01 1030.91 1030.58 1030.00 1029.35 1028.72 1027.99 1027.33 1026.63 1026.03 1025.28 1024.57 1024.35 1023.42 1023.17 1022.71 1022.16
1028.97 1029.87 1030.79 1031.08 1031.28 1031.44 1031.58 1031.98 1032.47 1032.51 1032.71 1033.07 1033.84 1034.04 1033.95 1033.77 1033.58 1033.33 1033.10 1032.84 1032.60 1032.23 1031.93 1031.79 1031.72 1031.69 1031.64 1031.30 1030.95 1030.42 1030.05 1029.42 1028.93 1028.48 1027.92 1027.49 1026.59 1025.77 1025.25 1024.43 1024.38 1023.49 1022.67 1022.67
1029.19 1030.71 1030.64 1030.84 1031.22 1031.30 1031.74 1032.28 1032.56 1033.02 1033.31 1033.75 1034.41 1034.41 1034.02 1033.43 1033.18 1032.85 1032.63 1032.47 1032.32 1032.16 1031.97 1031.74 1031.75 1031.64 1031.52 1031.23 1030.90 1030.50 1030.02 1029.55 1028.95 1028.59 1028.07 1027.43 1026.69 1025.91 1025.19 1024.89 1024.34 1023.60 1022.61 1023.11
1030.01 1030.43 1030.59 1030.87 1031.13 1031.52 1031.73 1031.97 1032.32 1032.98 1033.96 1034.97 1035.27 1036.03 1034.34 1033.60 1033.02 1032.74 1032.39 1032.24 1032.13 1031.96 1031.84 1031.73 1031.59 1031.49 1031.28 1030.99 1030.71 1030.48 1029.85 1029.52 1028.90 1028.69 1028.38 1028.04 1027.59 1027.01 1026.15 1025.30 1024.49 1023.81 1023.88 1023.77
1030.41 1030.44 1030.58 1030.83 1031.36 1031.46 1031.96 1031.98 1032.58 1033.51 1034.80 1035.74 1036.34 1037.00 1034.27 1033.98 1033.38 1032.54 1031.92 1031.74 1031.69 1031.66 1031.81 1031.56 1031.33 1031.22 1031.05 1030.89 1030.73 1030.40 1029.90 1029.46 1029.15 1028.85 1028.55 1028.25 1027.93 1027.38 1026.74 1026.09 1025.26 1024.47 1024.05 1023.41
1030.17 1030.21 1030.39 1030.60 1031.08 1031.53 1031.91 1032.47 1033.33 1034.55 1035.82 1037.08 1037.04 1037.56 1035.47 1034.33 1032.95 1032.17 1031.46 1031.33 1031.42 1031.37 1031.35 1031.28 1031.34 1031.16 1030.98 1030.82 1030.72 1030.20 1029.89 1029.59 1029.27 1028.97 1028.62 1028.30 1028.00 1027.48 1026.90 1026.20 1025.51 1024.68 1023.70 1022.90
1030.24 1030.26 1030.30 1030.51 1031.12 1031.67 1032.21 1033.30 1034.52 1035.96 1037.22 1038.03 1037.81 1037.96 1034.77 1033.19 1032.28 1031.85 1031.43 1031.39 1031.18 1030.97 1031.25 1031.24 1031.15 1031.23 1031.05 1030.91 1030.59 1030.17 1029.91 1029.61 1029.21 1029.02 1028.72 1028.30 1027.93 1027.48 1027.04 1026.48 1025.83 1024.85 1023.77 1023.02
1030.70 1030.26 1030.43 1030.61 1031.20 1032.28 1033.36 1034.36 1035.83 1037.67 1038.94 1038.95 1038.46 1037.27 1033.51 1032.38 1031.67 1031.25 1031.06 1030.87 1030.78 1030.96 1031.04 1031.00 1031.05 1031.20 1030.99 1030.66 1030.42 1030.23 1029.87 1029.47 1029.16 1029.04 1028.75 1028.29 1027.87 1027.52 1027.10 1026.57 1026.11 1025.45 1024.66 1023.91
1030.78 1030.57 1030.43 1030.66 1031.13 1032.21 1033.58 1034.85 1035.91 1037.30 1039.03 1040.01 1038.48 1036.65 1033.57 1031.85 1031.13 1030.77 1030.70 1030.71 1030.75 1030.94 1030.98 1030.93 1030.89 1030.82 1030.64 1030.40 1030.18 1030.12 1029.79 1029.43 1029.11 1028.98 1028.78 1028.32 1027.87 1027.46 1027.17 1026.63 1026.10 1025.64 1024.89 1024.05
1030.94 1031.00 1030.76 1031.01 1031.38 1032.45 1033.18 1034.74 1036.06 1037.66 1039.50 1040.43 1038.80 1037.54 1034.97 1032.19 1031.18 1030.62 1030.52 1030.57 1030.67 1030.75 1030.92 1030.78 1030.74 1030.55 1030.30 1030.30 1030.09 1029.79 1029.55 1029.40 1029.20 1029.05 1028.85 1028.47 1028.04 1027.53 1027.05 1026.58 1026.05 1025.53 1024.89 1024.16
1030.94 1031.53 1031.49 1031.46 1031.78 1032.41 1033.70 1034.71 1036.16 1037.69 1039.25 1040.54 1039.95 1035.97 1032.77 1031.53 1030.75 1030.67 1030.44 1030.47 1030.72 1030.74 1030.70 1030.65 1030.53 1030.36 1030.27 1030.11 1029.93 1029.61 1029.43 1029.46 1029.25 1029.10 1028.93 1028.53 1028.11 1027.62 1027.12 1026.65 1025.93 1025.27 1024.63 1024.08
1031.32 1031.85 1031.83 1031.46 1031.61 1032.05 1032.92 1033.92 1035.18 1037.16 1038.73 1039.60 1039.59 1034.60 1031.08 1030.78 1030.55 1030.63 1030.64 1030.70 1030.64 1030.56 1030.57 1030.50 1030.37 1030.29 1030.08 1029.91 1029.68 1029.63 1029.51 1029.50 1029.35 1029.17 1028.96 1028.52 1028.11 1027.69 1027.21 1026.65 1025.96 1025.22 1024.65 1024.01
1031.43 1032.09 1032.20 1031.85 1032.29 1032.32 1032.83 1033.51 1034.53 1036.00 1037.46 1038.27 1038.34 1032.89 1030.29 1030.43 1030.56 1030.36 1030.65 1030.53 1030.42 1030.28 1030.27 1030.18 1030.14 1030.11 1030.00 1029.77 1029.69 1029.67 1029.65 1029.60 1029.42 1029.17 1028.93 1028.54 1028.14 1027.73 1027.30 1026.76 1026.11 1025.45 1024.88 1024.42
1031.46 1032.33 1032.46 1032.41 1031.69 1031.97 1032.71 1033.09 1033.99 1035.22 1036.85 1036.87 1034.99 1031.68 1030.07 1030.27 1030.68 1030.38 1030.40 1030.29 1030.36 1030.12 1030.00 1030.00 1029.92 1029.89 1029.84 1029.67 1029.68 1029.74 1029.76 1029.65 1029.43 1029.24 1029.02 1028.67 1028.19 1027.83 1027.41 1026.93 1026.42 1025.82 1025.37 1025.35
1032.03 1032.54 1032.49 1031.84 1031.37 1031.65 1031.65 1032.13 1033.12 1034.23 1034.73 1035.39 1032.33 1031.97 1029.84 1029.86 1030.44 1030.38 1030.02 1029.97 1030.05 1029.87 1029.67 1029.64 1029.64 1029.66 1029.60 1029.58 1029.70 1029.80 1029.81 1029.66 1029.50 1029.34 1029.03 1028.74 1028.25 1027.88 1027.45 1027.11 1026.75 1026.31 1026.02 1025.82
1032.53 1032.53 1032.54 1031.72 1031.22 1031.23 1030.97 1030.62 1031.40 1032.24 1033.37 1033.42 1032.20 1031.22 1028.97 1028.83 1029.43 1029.82 1029.54 1029.56 1029.58 1029.40 1029.23 1029.11 1028.96 1029.10 1029.26 1029.57 1029.80 1029.88 1029.84 1029.72 1029.53 1029.35 1029.07 1028.69 1028.37 1027.99 1027.61 1027.46 1027.16 1026.84 1026.64 1026.59
1032.71 1032.95 1032.92 1031.98 1031.30 1030.65 1029.83 1028.44 1029.31 1030.08 1030.51 1030.96 1031.06 1029.03 1028.85 1028.89 1029.14 1029.30 1029.05 1029.11 1029.00 1028.80 1028.63 1028.65 1028.66 1028.77 1029.00 1029.20 1029.54 1029.76 1029.72 1029.60 1029.52 1029.43 1029.10 1028.76 1028.49 1028.21 1027.92 1027.74 1027.68 1027.42 1027.10 1027.17
1032.44 1032.96 1033.23 1032.76 1031.57 1030.47 1027.34 1027.07 1027.46 1028.19 1028.14 1028.64 1028.67 1028.22 1028.01 1028.29 1028.24 1028.33 1028.24 1028.18 1028.16 1028.15 1028.22 1028.38 1028.46 1028.59 1028.76 1028.92 1029.20 1029.29 1029.43 1029.53 1029.43 1029.40 1029.20 1028.88 1028.65 1028.44 1028.08 1028.00 1027.90 1027.81 1027.81 1027.80
1031.69 1032.54 1033.40 1033.47 1032.68 1029.46 1026.49 1026.50 1026.77 1027.15 1026.66 1026.32 1027.00 1026.73 1026.95 1027.46 1027.91 1027.37 1027.00 1027.35 1027.40 1027.66 1027.78 1027.85 1027.98 1028.38 1028.74 1029.01 1029.22 1029.53 1029.71 1029.73 1029.61 1029.47 1029.24 1028.96 1028.77 1028.64 1028.40 1028.44 1028.35 1028.24 1028.21 1028.17
1032.04 1032.42 1033.30 1033.83 1033.09 1030.16 1026.09 1025.74 1025.92 1026.17 1026.00 1024.53 1025.35 1025.73 1026.46 1027.52 1027.94 1027.40 1026.53 1026.70 1026.96 1026.94 1027.20 1027.58 1027.90 1028.32 1028.63 1028.92 1029.24 1029.83 1030.16 1030.06 1029.77 1029.57 1029.34 1029.06 1028.83 1028.76 1028.83 1028.86 1028.76 1028.74 1028.68 1028.63
1032.04 1032.65 1032.91 1033.05 1032.23 1028.44 1025.31 1025.43 1025.70 1025.78 1023.92 1023.38 1024.13 1024.65 1025.92 1026.90 1026.01 1025.75 1025.84 1026.19 1026.27 1026.80 1027.08 1027.21 1027.68 1028.03 1028.17 1028.65 1029.18 1029.49 1029.36 1029.26 1029.37 1029.49 1029.26 1029.11 1029.02 1029.03 1029.09 1029.23 1029.23 1029.16 1029.05 1028.99
1029.94 1031.01 1031.56 1031.81 1030.86 1026.74 1024.39 1025.43 1024.83 1022.50 1022.33 1022.59 1023.20 1023.67 1024.53 1024.65 1025.04 1025.38 1025.77 1026.09 1026.22 1026.35 1026.86 1027.17 1027.66 1027.91 1028.17 1028.42 1028.86 1029.17 1029.21 1029.04 1029.08 1029.14 1029.16 1029.13 1029.04 1029.31 1029.51 1029.52 1029.62 1029.63 1029.54 1029.42
1028.41 1027.24 1027.72 1027.99 1025.03 1022.80 1022.39 1021.23 1021.02 1021.33 1021.55 1022.04 1022.57 1022.67 1023.16 1023.82 1024.19 1024.49 1025.08 1025.50 1025.73 1026.14 1026.50 1026.76 1027.25 1027.67 1028.07 1028.29 1028.60 1028.78 1028.66 1028.77 1028.80 1028.89 1029.11 1029.20 1029.12 1029.31 1029.64 1029.81 1029.90 1029.95 1029.91 1029.84
1026.43 1025.95 1026.10 1025.61 1021.12 1021.15 1021.44 1020.66 1020.78 1020.72 1020.91 1020.94 1021.19 1021.51 1022.11 1022.62 1022.88 1023.57 1024.38 1024.96 1025.43 1025.87 1026.33 1026.62 1027.22 1027.58 1027.77 1027.92 1028.07 1028.14 1028.24 1028.44 1028.74 1028.87 1028.73 1028.69 1028.81 1029.12 1029.36 1029.52 1029.76 1029.85 1029.97 1030.03
1025.24 1025.12 1024.14 1023.10 1020.48 1020.24 1019.79 1019.61 1019.35 1019.47 1019.85 1020.17 1020.33 1020.61 1021.14 1021.85 1022.39 1022.94 1023.67 1024.26 1024.73 1025.34 1025.93 1026.21 1026.65 1027.06 1027.34 1027.47 1027.71 1027.78 1027.93 1028.23 1028.48 1028.58 1028.67 1028.53 1028.43 1028.69 1028.81 1028.99 1029.20 1029.43 1029.64 1029.58
1023.56 1022.17 1022.35 1020.00 1018.68 1018.78 1018.42 1018.05 1018.20 1018.79 1018.93 1019.02 1019.73 1020.34 1020.57 1021.02 1021.37 1022.08 1022.86 1023.29 1023.96 1024.63 1025.23 1025.82 1026.05 1026.27 1026.44 1026.77 1027.01 1027.14 1027.50 1027.91 1028.22 1028.34 1028.28 1028.25 1028.38 1028.56 1028.74 1028.84 1028.95 1028.84 1028.97 1029.16
Thickness
5574 5553 5530 5532 5530 5522 5512 5504 5501 5494 5486 5476 5460 5447 5435 5425 5411 5396 5387 5381 5375 5369 5365 5355 5348 5343 5346 5352 5354 5363 5381 5401 5416 5430 5447 5464 5478 5494 5511 5522 5535 5543 5555 5566
5555 5543 5543 5532 5526 5517 5511 5506 5488 5490 5477 5470 5451 5439 5430 5421 5410 5398 5388 5377 5370 5366 5357 5350 5341 5334 5329 5332 5338 5346 5358 5379 5398 5412 5426 5441 5459 5476 5490 5506 5513 5529 5544 5551
5550 5550 5546 5538 5523 5525 5511 5504 5495 5485 5474 5459 5451 5430 5427 5424 5411 5406 5392 5378 5368 5357 5347 5340 5330 5324 5318 5318 5323 5331 5340 5355 5376 5394 5410 5425 5442 5460 5476 5490 5503 5516 5533 5537
5551 5551 5541 5531 5529 5521 5513 5509 5500 5489 5465 5444 5442 5396 5417 5414 5407 5400 5390 5373 5363 5354 5345 5332 5322 5316 5312 5311 5313 5316 5325 5334 5353 5374 5390 5405 5419 5435 5454 5471 5488 5503 5512 5522
5558 5552 5541 5529 5528 5520 5516 5504 5499 5483 5451 5443 5430 5397 5400 5407 5402 5394 5383 5373 5363 5351 5339 5329 5318 5311 5309 5306 5304 5307 5311 5317 5330 5350 5371 5386 5403 5419 5436 5451 5467 5486 5500 5513
5555 5552 5546 5541 5529 5517 5507 5496 5478 5451 5434 5397 5430 5404 5379 5388 5397 5401 5391 5379 5367 5353 5342 5327 5315 5306 5300 5300 5297 5300 5302 5305 5312 5328 5350 5370 5386 5405 5421 5438 5453 5470 5491 5506
5556 5551 5546 5541 5529 5515 5497 5476 5467 5474 5421 5413 5404 5379 5396 5411 5406 5397 5390 5377 5364 5353 5338 5324 5310 5300 5295 5292 5293 5294 5296 5298 5301 5310 5329 5350 5371 5390 5406 5422 5439 5457 5478 5494
5544 5559 5544 5538 5531 5513 5491 5471 5431 5453 5396 5391 5407 5373 5416 5416 5415 5402 5393 5382 5369 5350 5333 5322 5311 5298 5291 5290 5289 5288 5289 5292 5295 5298 5312 5332 5355 5373 5392 5409 5424 5439 5456 5474
5542 5551 5546 5541 5532 5513 5492 5461 5465 5448 5426 5403 5378 5399 5423 5432 5420 5410 5397 5385 5367 5349 5333 5322 5309 5300 5292 5287 5285 5282 5282 5285 5288 5291 5301 5316 5336 5359 5376 5394 5410 5424 5441 5460
5546 5543 5544 5537 5529 5509 5507 5474 5455 5424 5396 5388 5372 5364 5389 5431 5429 5414 5398 5385 5370 5355 5339 5325 5313 5304 5295 5284 5278 5275 5274 5277 5280 5285 5293 5307 5320 5342 5361 5379 5397 5413 5429 5446
5546 5534 5541 5532 5515 5496 5482 5475 5447 5433 5418 5375 5332 5415 5413 5424 5430 5416 5402 5390 5373 5360 5348 5333 5320 5308 5298 5289 5278 5272 5269 5269 5274 5280 5290 5303 5313 5327 5346 5365 5384 5402 5419 5435
5540 5523 5522 5532 5525 5513 5497 5490 5474 5437 5445 5410 5368 5406 5455 5435 5425 5414 5401 5392 5378 5367 5354 5341 5328 5315 5305 5298 5290 5280 5273 5272 5275 5282 5293 5303 5310 5318 5333 5352 5370 5389 5406 5424
5537 5524 5510 5543 5520 5508 5504 5490 5478 5456 5427 5390 5398 5434 5460 5441 5432 5423 5406 5394 5384 5374 5363 5351 5337 5324 5314 5306 5301 5296 5289 5286 5288 5294 5300 5305 5309 5315 5324 5339 5358 5375 5392 5409
5538 5515 5522 5513 5533 5508 5492 5493 5478 5458 5420 5402 5432 5468 5484 5459 5419 5421 5410 5398 5387 5379 5370 5359 5347 5335 5324 5317 5312 5306 5302 5300 5301 5302 5304 5307 5312 5316 5322 5331 5344 5361 5377 5390
5530 5529 5514 5517 5520 5513 5505 5498 5483 5458 5436 5445 5464 5441 5478 5464 5424 5410 5414 5411 5400 5390 5381 5370 5360 5346 5337 5328 5320 5314 5309 5308 5308 5309 5311 5312 5314 5317 5321 5328 5336 5347 5362 5375
5517 5529 5519 5522 5520 5501 5512 5509 5492 5488 5447 5444 5461 5461 5484 5467 5443 5429 5428 5418 5405 5400 5391 5382 5374 5363 5350 5337 5327 5323 5319 5315 5315 5314 5315 5317 5318 5320 5322 5323 5330 5339 5349 5359
5515 5514 5517 5527 5519 5508 5518 5527 5508 5498 5484 5461 5461 5485 5469 5469 5458 5432 5428 5425 5412 5409 5402 5392 5382 5372 5361 5350 5339 5329 5325 5323 5320 5318 5320 5321 5322 5323 5323 5323 5324 5330 5339 5346
5512 5513 5507 5508 5508 5510 5559 5542 5527 5507 5517 5486 5488 5480 5470 5461 5461 5451 5440 5438 5428 5420 5410 5398 5388 5379 5369 5361 5351 5343 5334 5328 5326 5323 5323 5323 5324 5324 5326 5325 5324 5325 5328 5334
5518 5508 5495 5469 5475 5531 5561 5538 5525 5520 5524 5517 5500 5502 5496 5479 5468 5463 5456 5442 5434 5425 5416 5407 5397 5386 5375 5366 5357 5348 5340 5333 5329 5326 5325 5325 5325 5325 5326 5323 5323 5322 5322 5324
5508 5504 5489 5470 5482 5488 5558 5544 5530 5526 5496 5532 5514 5510 5493 5473 5449 5452 5465 5452 5440 5434 5425 5415 5402 5391 5381 5372 5363 5351 5340 5335 5333 5329 5326 5326 5327 5326 5325 5322 5321 5320 5319 5318
5504 5496 5482 5468 5460 5509 5547 5536 5529 5524 5543 5543 5522 5515 5491 5473 5476 5480 5470 5460 5451 5438 5429 5421 5409 5398 5389 5379 5368 5359 5354 5349 5342 5335 5332 5328 5325 5323 5322 5320 5319 5318 5317 5316
5515 5488 5476 5478 5456 5505 5541 5526 5530 5551 5547 5544 5527 5518 5503 5496 5491 5481 5471 5461 5452 5444 5434 5424 5412 5403 5394 5385 5375 5366 5358 5355 5349 5342 5337 5332 5327 5322 5317 5315 5315 5314 5313 5312
5523 5530 5508 5512 5535 5558 5556 5565 5562 5553 5553 5539 5531 5524 5515 5505 5496 5488 5476 5466 5456 5447 5438 5429 5419 5409 5398 5388 5379 5372 5367 5360 5354 5348 5339 5334 5331 5324 5317 5312 5309 5308 5308 5307
5537 5531 5527 5536 5578 5569 5556 5563 5555 5552 5548 5546 5539 5534 5520 5514 5505 5493 5480 5468 5458 5448 5439 5431 5420 5412 5403 5394 5386 5379 5372 5365 5357 5350 5346 5341 5335 5328 5322 5317 5311 5307 5304 5302
5536 5528 5534 5539 5568 5571 5568 5565 5567 5560 5552 5548 5543 5536 5526 5514 5505 5496 5483 5472 5463 5451 5440 5433 5424 5415 5407 5399 5390 5383 5376 5367 5359 5353 5347 5343 5340 5334 5329 5324 5318 5311 5306 5304
5535 5544 5545 5576 5579 5581 5579 5577 5570 5558 5555 5551 5542 5532 5524 5516 5511 5498 5486 5477 5466 5454 5443 5432 5425 5419 5413 5404 5396 5389 5379 5370 5361 5355 5351 5347 5340 5334 5328 5324 5319 5317 5312 5306